Weather History for Bowling Green, KY

Change the Weather History Date:

Thursday, February 7, 2013

  Actual Average Record
Temperature  
Mean Temperature 52 °F 38 °F  
Max Temperature 67 °F 48 °F 71 °F (1931)
Min Temperature 37 °F 28 °F -5 °F (1984)
Degree Days  
Heating Degree Days 13 27  
Month to date heating degree days 187 193  
Since 1 July heating degree days 2388 2685  
Cooling Degree Days 0 0  
Month to date cooling degree days 0 0  
Year to date cooling degree days 0 0  
Growing Degree Days 2 (Base 50)    
Moisture  
Dew Point 39 °F    
Average Humidity 61    
Maximum Humidity 85    
Minimum Humidity 37    
Precipitation  
Precipitation 0.00 in 0.14 in 1.05 in (1933)
Month to date precipitation 0.10 1.02  
Year to date precipitation 5.59 4.63  
Snow  
Snow 0.00 in 0.10 in 6.00 in (1979)
Month to date snowfall 1.0 1.0  
Since 1 July snowfall 1.3 5.5  
Snow Depth 0.00 in    
Sea Level Pressure  
Sea Level Pressure 30.00 in    
Wind  
Wind Speed 6 mph (SSE)    
Max Wind Speed 15 mph    
Max Gust Speed 20 mph    
Visibility 10 miles    
Events      
T = Trace of Precipitation, MM = Missing Value Source: NWS Daily Summary

Daily Weather History Graph

Daily Weather History Graph

Search for Another Location

Airport:

Trip Planner

Search our weather history database for the weather conditions in past years. The results will help you decide how hot, cold, wet, or windy it might be!

Date:

Astronomy

Feb. 07, 2013 Rise Set
Actual Time 6:42 AM CST 5:17 PM CST
Civil Twilight 6:15 AM CST 5:44 PM CST
Nautical Twilight 5:44 AM CST 6:15 PM CST
Astronomical Twilight 5:14 AM CST 6:45 PM CST
Moon 4:19 AM CST (2/7) 2:43 PM CST (2/7)
Length of Visible Light 11h 29m
Length of Day
10h 35m
Waning Crescent, 9% of the Moon is Illuminated
Feb 7
Waning Crescent
Feb 10
New
Feb 17
First Quarter
Feb 25
Full
Mar 4
Last Quarter

Hourly Weather History & Observations

Time (CST) Temp. Windchill Dew Point Humidity Pressure Visibility Wind Dir Wind Speed Gust Speed Precip Events Conditions
12:53 AM 41.0 °F 39.0 °F 34.0 °F 76% 30.13 in 10.0 mi East 3.5 mph - N/A   Clear
1:53 AM 42.1 °F - 34.0 °F 73% 30.12 in 10.0 mi Calm Calm - N/A   Partly Cloudy
2:53 AM 41.0 °F - 34.0 °F 76% 30.12 in 9.0 mi Calm Calm - N/A   Clear
3:53 AM 42.1 °F 40.2 °F 34.0 °F 73% 30.10 in 10.0 mi NE 3.5 mph - N/A   Mostly Cloudy
4:53 AM 39.9 °F 37.8 °F 34.0 °F 79% 30.09 in 9.0 mi ENE 3.5 mph - N/A   Clear
5:53 AM 39.0 °F - 33.1 °F 79% 30.09 in 10.0 mi Calm Calm - N/A   Clear
6:53 AM 37.9 °F - 33.1 °F 83% 30.09 in 10.0 mi Calm Calm - N/A   Clear
7:53 AM 41.0 °F - 34.0 °F 76% 30.07 in 10.0 mi Calm Calm - N/A   Clear
8:53 AM 46.0 °F - 34.0 °F 63% 30.08 in 10.0 mi Calm Calm - N/A   Scattered Clouds
9:53 AM 53.1 °F - 34.0 °F 48% 30.06 in 10.0 mi Calm Calm - N/A   Clear
10:53 AM 57.9 °F - 35.1 °F 42% 30.05 in 10.0 mi ESE 4.6 mph - N/A   Mostly Cloudy
11:53 AM 63.0 °F - 37.9 °F 40% 30.00 in 10.0 mi South 8.1 mph - N/A   Clear
12:53 PM 66.0 °F - 39.9 °F 38% 29.96 in 10.0 mi SSE 11.5 mph - N/A   Clear
1:53 PM 66.9 °F - 39.9 °F 37% 29.94 in 10.0 mi South 10.4 mph 18.4 mph N/A   Clear
2:53 PM 66.0 °F - 41.0 °F 40% 29.93 in 10.0 mi South 12.7 mph 16.1 mph N/A   Clear
3:53 PM 64.0 °F - 42.1 °F 45% 29.91 in 10.0 mi South 11.5 mph - N/A   Clear
4:53 PM 61.0 °F - 42.1 °F 50% 29.91 in 10.0 mi South 9.2 mph - N/A   Clear
5:53 PM 60.1 °F - 42.1 °F 51% 29.91 in 10.0 mi SSE 6.9 mph - N/A   Overcast
6:53 PM 59.0 °F - 42.1 °F 53% 29.92 in 10.0 mi South 9.2 mph - N/A   Overcast
7:53 PM 57.0 °F - 46.0 °F 67% 29.91 in 10.0 mi South 11.5 mph - N/A   Overcast
8:53 PM 54.0 °F - 45.0 °F 72% 29.92 in 10.0 mi South 9.2 mph - N/A   Clear
9:53 PM 53.1 °F - 45.0 °F 74% 29.91 in 10.0 mi South 5.8 mph - N/A   Clear
10:53 PM 54.0 °F - 45.0 °F 72% 29.89 in 10.0 mi SSW 9.2 mph - N/A   Overcast
11:53 PM 54.0 °F - 46.0 °F 75% 29.88 in 10.0 mi SSW 11.5 mph - N/A   Mostly Cloudy